This demonstration page uses our WeatherBlox Daily Observations layout. Learn more.

39.92423, -83.80882

Hourly Observations for September 30, 2018

Temp ( °F °C ) Dew Point ( °F °C ) Humidity (%) Winds ( mph kmh ) Pressure ( in mb ) Visibility ( mi km ) Precip ( " mm )
12:56 am 00:56 Clear 52 11.1 50 10 93 93 NE 6 9 30.27 1025 10 16.0934 0 0
1:56 am 01:56 Clear 54 12.2 51 10.6 90 90 E 3 6 30.26 1025 10 16.0934 0 0
2:56 am 02:56 Clear 51 10.6 50 10 96 96 E 5 7 30.26 1025 10 16.0934 0 0
3:56 am 03:56 Clear 52 11.1 50 10 93 93 ESE 8 13 30.25 1024 10 16.0934 0 0
4:56 am 04:56 Mostly Clear 53 11.7 51 10.6 93 93 SE 3 6 30.26 1025 10 16.0934 0 0
5:56 am 05:56 Clear 53 11.7 52 11.1 96 96 SSE 7 11 30.27 1025 10 16.0934 0 0
6:56 am 06:56 Clear 54 12.2 53 11.7 97 97 SSE 7 11 30.28 1025 10 16.0934 0 0
7:56 am 07:56 Mostly Sunny 53 11.7 52 11.1 96 96 SE 3 6 30.29 1026 10 16.0934 0 0
8:56 am 08:56 Cloudy 59 15 55 12.8 87 87 SSE 8 13 30.28 1026 10 16.0934 0 0
9:56 am 09:56 Mostly Sunny 65 18.3 58 14.4 78 78 Calm 30.28 1025 10 16.0934 0 0
10:56 am 10:56 Partly Cloudy 71 21.7 59 15 66 66 SSW 6 9 30.27 1025 10 16.0934 0 0
11:56 am 11:56 Sunny 73 22.8 58 14.4 59 59 VRB 3 6 30.26 1025 10 16.0934 0 0
12:56 pm 12:56 Sunny 75 23.9 58 14.4 55 55 SSW 6 9 30.26 1025 10 16.0934 0 0
1:56 pm 13:56 Sunny 77 25 58 14.4 52 52 SSW 5 7 30.23 1024 10 16.0934 0 0
2:56 pm 14:56 Sunny 78 25.6 57 13.9 48 48 SSW 8 13 30.19 1022 10 16.0934 0 0
3:56 pm 15:56 Sunny 78 25.6 56 13.3 47 47 SW 8 13 30.19 1022 10 16.0934 0 0
4:56 pm 16:56 Sunny 79 26.1 57 13.9 47 47 SSW 8 13 30.18 1022 10 16.0934 0 0
5:56 pm 17:56 Sunny 78 25.6 58 14.4 50 50 SW 7 11 30.18 1022 10 16.0934 0 0
6:56 pm 18:56 Sunny 74 23.3 58 14.4 57 57 SW 5 7 30.19 1022 10 16.0934 0 0
7:56 pm 19:56 Clear 66 18.9 58 14.4 75 75 SW 3 6 30.2 1023 10 16.0934 0 0
9:56 pm 21:56 Clear 61 16.1 57 13.9 87 87 Calm 30.22 1023 10 16.0934 0 0
10:56 pm 22:56 Clear 58 14.4 57 13.9 97 97 S 3 6 30.22 1023 10 16.0934 0 0
11:56 pm 23:56 Clear 57 13.9 56 13.3 96 96 Calm 30.23 1024 10 16.0934 0 0

Powered by AerisWeather